Regional Weather Roundup
Issued by NWS

Home | Current Version | Previous Version | Graphics & Text | Print | Product List | Glossary On
Versions: 1 2 3 4 5 6 7 8 9 10 11 12 13 14 15 16 17 18 19 20 21 22 23 24 25 26 27 28 29 30 31 32 33 34 35 36 37 38 39 40 41 42 43 44 45 46 47 48 49 50
000
ASUS43 KLMK 052210
RWRKY
KENTUCKY REGIONAL WEATHER ROUNDUP
NATIONAL WEATHER SERVICE LOUISVILLE KY
600 PM EDT THU MAY 05 2016

NOTE "FAIR" INDICATES FEW OR NO CLOUDS BELOW 12,000 FEET
WITH NO SIGNIFICANT WEATHER AND/OR OBSTRUCTIONS TO VISIBILITY.

KYZ001>023-026-027-061>063-070>075-052300-
WESTERN AND SOUTH CENTRAL KENTUCKY

CITY           SKY/WX    TMP DP  RH WIND       PRES   REMARKS
PADUCAH        CLOUDY    62  43  49 NE16      29.97S
HENDERSON      CLOUDY    57  43  58 NW9       29.96R
OWENSBORO      CLOUDY    59  45  59 N13       29.95S
HOPKINSVILLE   CLOUDY    57  42  57 NW9       29.95S
BOWLING GREEN  CLOUDY    58  42  55 N10G20    29.93R
GLASGOW        CLOUDY    55  41  57 N13G20    29.92R
$$

KYZ024-025-028>034-038-045-046-053-052300-
NORTH CENTRAL KENTUCKY

CITY           SKY/WX    TMP DP  RH WIND       PRES   REMARKS
LOUISVILLE/SDF PTSUNNY   57  44  62 N7        29.91S
LOUISVILLE/LOU CLOUDY    57  45  64 NW9       29.91S
FORT KNOX      CLOUDY    53  44  70 NW7       29.91R
$$

KYZ035>037-039>044-047>052-055>060-089>105-052300-
NORTHEAST KENTUCKY

CITY           SKY/WX    TMP DP  RH WIND       PRES   REMARKS
LEXINGTON      CLOUDY    52  43  71 NW10      29.88R
COVINGTON      PTSUNNY   55  47  74 W6        29.86S
FRANKFORT      CLOUDY    53  43  68 NW10      29.88S
$$

KYZ054-064>069-076>088-106>120-052300-
SOUTHEAST KENTUCKY

CITY           SKY/WX    TMP DP  RH WIND       PRES   REMARKS
JACKSON        CLOUDY    51  39  63 NW8       29.82R
LONDON         CLOUDY    51  37  58 NW9       29.85S
SOMERSET       CLOUDY    52  36  54 NW8       29.89S
MIDDLESBORO    CLOUDY    52  42  68 NW9       29.84R
MONTICELLO     CLOUDY    53  40  61 N16G24    29.90S
$$





USA.gov is the U.S. government's official web portal to all federal, state and local government web resources and services.